Probability
0 0 0 0 0 0 0 0 0 0 0 0 0 0 0 0 0 0 0 0 0 0 0 0 0 0 0 0 0 0 0 0 0 0 0 0 0 0 0 0 0 0 0
0 0 0 0 0 0 0 0 0 0 0 0 0 0 0 0 0 0 0 0 0 0 0 0 0 0 0 0 0 0 0 0 0 0 0 0 0 0 0 0 0 0 0
0 0 0 0 0 0 0 0 0 0 0 0 0 0 0 0 0 0 0 0 0 0 0 0 0 0 0 0 0 0 0 0 0 0 0 0 0 0 0 0 0 0 0
0 0 0 0 0 0 0 0 0 0 0 0 0 0 0 0 0 0 0 0 0 0 0 0 0 0 0 0 0 0 0 0 0 0 0 0 0 0 0 0 0 0 0
0 0 0 0 0 0 0 0 0 0 0 0 0 0 0 0 0 0 0 0 0 0 0 0 0 0 0 0 0 0 0 0 0 0 0 0 0 0 0 0 0 0 0
0 0 0 0 0 0 0 0 0 0 0 0 0 0 0 0 0 0 0 0 0 0 0 0 0 0 0 0 0 0 0 0 0 0 0 0 0 0 0 0 0 0 0
0 0 0 0 0 0 0 0 0 0 0 0 0 0 0 0 0 0 0 0 0 0 0 0 0 0 0 0 0 0 0 0 0 0 0 0 0 0 0 0 0 0 0
0 0 0 0 0 0 0 0 0 0 0 0 0 0 0 0 0 0 0 0 0 0 0 0 0 0 0 0 0 0 0 0 0 0 0 0 0 0 0 0 0 0 0
0 0 0 0 0 0 0 0 0 0 0 0 0 0 0 0 0 0 0 0 0 0 0 0 0 0 0 0 0 0 0 0 0 0 0 0 0 0 0 0 0 0 0
0 0 0 0 0 0 0 0 0 0 0 0 0 0 0 0 0 0 0 0 0 0 0 0 0 0 0 0 0 0 0 0 0 0 0 0 0 0 0 0 0 0 0
0 0 0 0 0 0 0 0 0 0 0 0 0 0 0 0 0 0 0 0 0 0 0 0 0 0 0 0 0 0 0 0 0 0 0 0 0 0 0 0 0 0 0
0 0 0 0 0 0 0 0 0 0 0 0 0 0 0 0 0 0 0 0 0 0 0 0 0 0 0 0 0 0 0 0 0 0 0 0 0 0 0 0 0 0 0
0 0 0 0 0 0 0 0 0 0 0 0 0 0 0 0 0 0 0 0 0 0 0 0 0 0 0 0 0 0 0 0 0 0 0 0 0 0 0 0 0 0 0
0 0 0 0 0 0 0 0 0 0 0 0 0 0 0 0 0 0 0 0 0 0 0 0 0 0 0 0 0 0 0 0 0 0 0 0 0 0 0 0 0 0 0
0 0 0 0 0 0 0 0 0 0 0 0 0 0 0 0 0 0 0 0 0 0 0 0 0 0 0 0 0 0 0 0 0 0 0 0 0 0 0 0 0 0 0
0 0 0 0 0 0 0 0 0 0 0 0 0 0 0 0 0 0 0 0 0 0 0 0 0 0 0 0 0 0 0 0 0 0 0 0 0 0 0 0 0 0 0
0 0 0 0 0 0 0 0 0 0 0 0 0 0 0 0 0 0 0 0 0 0 0 0 0 0 0 0 0 0 0 0 0 0 0 0 0 0 0 0 0 0 0
0 0 0 0 0 0 0 0 0 0 0 0 0 0 0 0 0 0 0 0 0 0 0 0 0 0 0 0 0 0 0 0 0 0 0 0 0 0 0 0 0 0 0
0 0 0 0 0 0 0 0 0 0 0 0 0 0 0 0 0 0 0 0 0 0 0 0 0 0 0 0 0 0 0 0 0 0 0 0 0 0 0 0 0 0 0
0 0 0 0 0 0 0 0 0 0 0 0 0 0 0 0 0 0 0 0 0 0 0 0 0 0 0 0 0 0 0 0 0 0 0 0 0 0 0 0 0 0 0
0 0 0 0 0 0 0 0 0 0 0 0 0 0 0 0 0 0 0 0 0 0 0 0 0 0 0 0 0 0 0 0 0 0 0 0 0 0 0 0 0 0 0
0 0 0 0 0 0 0 0 0 0 0 0 0 0 0 0 0 0 0 0 0 0 0 0 0 0 0 0 0 0 0 0 0 0 0 0 0 0 0 0 0 0 0
0 0 0 0 0 0 0 0 0 0 0 0 0 0 0 0 0 0 0 0 0 0 0 0 0 0 0 0 0 0 0 0 0 0 0 0 0 0 0 0 0 0 0
0 0 0 0 0 0 0 0 0 0 0 0 0 0 0 0 0 0 0 0 0 0 0 0 0 0 0 0 0 0 0 0 0 0 0 0 0 0 0 0 0 0 0
0 0 0 0 0 0 0 0 0 0 0 0 0 0 0 0 0 0 0 0 0 0 0 0 0 0 0 0 0 0 0 0 0 0 0 0 0 0 0 0 0 0 0
0 0 0 0 0 0 0 0 0 0 0 0 0 0 0 0 0 0 0 0 0 0 0 0 0 0 0 0 0 0 0 0 0 0 0 0 0 0 0 0 0 0 0
Height
5710 5703 5697 5690 5682 5674 5666 5658 5650 5641 5632 5623 5614 5605 5595 5585 5575 5566 5557 5549 5541 5533 5525 5518 5512 5504 5498 5493 5487 5484 5480 5477 5476 5486 5484 5481 5479 5481 5483 5483 5485 5488 5493
5696 5689 5682 5674 5666 5657 5649 5640 5630 5621 5611 5602 5592 5582 5572 5562 5552 5542 5534 5525 5516 5509 5501 5493 5487 5479 5474 5469 5463 5459 5456 5453 5450 5455 5460 5456 5454 5455 5457 5458 5460 5463 5468
5682 5674 5666 5657 5648 5639 5630 5620 5610 5600 5590 5580 5569 5559 5549 5539 5529 5519 5510 5502 5493 5485 5478 5470 5464 5457 5452 5447 5442 5438 5435 5432 5430 5430 5436 5435 5432 5433 5433 5436 5438 5440 5443
5666 5658 5649 5640 5631 5621 5611 5601 5590 5580 5569 5558 5548 5537 5527 5517 5507 5497 5487 5479 5471 5463 5456 5449 5443 5437 5432 5427 5423 5420 5416 5413 5411 5411 5414 5414 5413 5413 5412 5415 5417 5419 5421
5650 5641 5632 5622 5612 5602 5592 5581 5570 5559 5548 5537 5527 5517 5506 5495 5485 5475 5466 5458 5450 5444 5437 5430 5425 5419 5414 5409 5405 5403 5399 5397 5395 5394 5395 5395 5396 5395 5395 5396 5397 5399 5401
5634 5624 5615 5605 5594 5584 5573 5561 5550 5539 5528 5516 5506 5495 5485 5475 5464 5454 5445 5438 5432 5426 5420 5414 5409 5404 5399 5394 5390 5387 5384 5382 5380 5379 5378 5379 5379 5378 5378 5378 5380 5382 5385
5617 5607 5597 5586 5576 5564 5553 5541 5530 5519 5508 5497 5486 5475 5465 5456 5445 5436 5427 5420 5415 5409 5403 5398 5393 5389 5384 5380 5376 5373 5370 5367 5366 5364 5363 5364 5363 5363 5362 5363 5364 5365 5368
5600 5589 5578 5567 5557 5545 5533 5521 5510 5499 5488 5477 5467 5456 5446 5437 5428 5419 5411 5405 5399 5394 5388 5383 5378 5374 5370 5366 5362 5360 5357 5355 5352 5350 5349 5349 5349 5348 5348 5348 5348 5350 5352
5583 5572 5560 5548 5537 5526 5514 5502 5490 5479 5469 5458 5447 5437 5428 5420 5411 5403 5396 5390 5386 5380 5375 5370 5365 5360 5356 5352 5348 5346 5344 5343 5340 5337 5336 5335 5334 5334 5334 5334 5335 5335 5337
5565 5554 5542 5529 5517 5506 5494 5483 5471 5460 5450 5440 5430 5420 5410 5403 5396 5388 5382 5376 5372 5367 5362 5357 5352 5347 5343 5339 5335 5333 5331 5330 5327 5325 5323 5322 5321 5321 5320 5320 5321 5322 5323
5547 5535 5523 5511 5498 5487 5476 5464 5453 5442 5432 5423 5413 5405 5396 5388 5382 5375 5369 5363 5358 5354 5350 5345 5340 5335 5331 5327 5323 5321 5319 5316 5314 5313 5311 5310 5309 5308 5308 5307 5308 5308 5309
5530 5518 5505 5493 5480 5468 5457 5446 5435 5424 5415 5406 5397 5390 5382 5375 5369 5363 5357 5351 5346 5341 5338 5333 5329 5324 5319 5316 5312 5310 5307 5304 5302 5301 5299 5298 5297 5296 5295 5295 5295 5295 5296
5511 5499 5487 5475 5463 5450 5439 5428 5418 5407 5398 5390 5383 5376 5370 5363 5357 5351 5346 5341 5335 5330 5326 5322 5317 5313 5309 5305 5302 5299 5296 5293 5291 5289 5288 5286 5285 5284 5284 5283 5283 5283 5284
5493 5481 5469 5458 5446 5434 5422 5411 5401 5392 5383 5376 5369 5364 5358 5352 5346 5341 5336 5331 5326 5321 5316 5312 5307 5302 5298 5295 5291 5288 5285 5282 5280 5278 5276 5275 5274 5273 5272 5272 5271 5271 5272
5475 5463 5452 5440 5428 5418 5407 5396 5386 5378 5369 5362 5357 5351 5346 5342 5336 5330 5325 5320 5315 5311 5306 5301 5297 5293 5288 5285 5281 5278 5275 5273 5270 5268 5266 5265 5263 5262 5261 5261 5260 5260 5260
5457 5446 5434 5423 5412 5401 5392 5385 5375 5366 5359 5351 5345 5340 5335 5330 5325 5320 5315 5310 5305 5300 5295 5291 5286 5282 5278 5275 5272 5269 5266 5263 5261 5258 5256 5255 5253 5252 5251 5250 5249 5248 5248
5439 5428 5417 5406 5396 5386 5378 5370 5365 5358 5350 5342 5336 5330 5325 5320 5315 5310 5306 5301 5296 5290 5285 5281 5276 5272 5268 5265 5262 5259 5256 5254 5251 5249 5247 5245 5243 5242 5240 5239 5237 5236 5236
5422 5411 5401 5391 5382 5373 5365 5358 5351 5345 5341 5334 5328 5321 5316 5311 5306 5301 5296 5292 5287 5282 5276 5272 5267 5263 5259 5256 5253 5250 5247 5244 5241 5239 5237 5235 5233 5231 5229 5227 5226 5224 5223
5407 5396 5386 5377 5369 5361 5353 5346 5340 5334 5328 5324 5319 5313 5307 5302 5297 5292 5287 5282 5278 5273 5268 5264 5259 5255 5251 5247 5244 5241 5238 5235 5232 5229 5227 5225 5222 5220 5218 5217 5215 5213 5211
5392 5382 5372 5364 5356 5349 5342 5336 5330 5324 5319 5313 5309 5304 5299 5294 5289 5284 5279 5274 5269 5265 5260 5256 5251 5247 5243 5239 5235 5232 5228 5225 5222 5220 5217 5215 5212 5210 5208 5206 5204 5202 5201
5378 5369 5360 5352 5345 5338 5332 5325 5320 5315 5309 5304 5299 5294 5289 5284 5280 5275 5270 5266 5261 5256 5252 5247 5243 5238 5234 5230 5226 5222 5219 5216 5213 5210 5208 5205 5202 5200 5198 5196 5194 5192 5190
5364 5356 5348 5341 5334 5328 5322 5316 5310 5305 5300 5295 5291 5286 5281 5276 5271 5267 5262 5257 5253 5248 5243 5239 5234 5230 5225 5221 5217 5213 5210 5207 5204 5201 5198 5196 5193 5190 5188 5186 5184 5182 5180
5351 5344 5337 5330 5324 5318 5312 5307 5301 5297 5292 5287 5282 5278 5273 5268 5263 5258 5254 5249 5244 5240 5235 5230 5226 5221 5217 5213 5209 5205 5202 5199 5195 5192 5190 5187 5184 5181 5179 5177 5174 5172 5171
5339 5332 5326 5320 5314 5308 5303 5298 5293 5288 5283 5278 5274 5269 5265 5260 5255 5250 5245 5241 5236 5232 5227 5222 5218 5213 5209 5205 5201 5197 5194 5190 5187 5184 5181 5178 5176 5173 5170 5168 5165 5163 5161
5328 5322 5316 5310 5305 5299 5294 5289 5284 5279 5275 5271 5266 5262 5257 5252 5247 5242 5237 5233 5228 5224 5219 5214 5210 5205 5201 5197 5193 5189 5186 5182 5179 5176 5173 5170 5167 5164 5161 5158 5156 5153 5151
5317 5312 5306 5301 5296 5291 5286 5281 5276 5272 5267 5263 5259 5254 5249 5245 5240 5235 5230 5225 5220 5216 5211 5207 5202 5198 5194 5189 5185 5182 5178 5175 5171 5168 5165 5161 5158 5155 5152 5149 5146 5143 5140
Wind_Speed
53 56 58 61 63 66 68 70 72 73 75 77 79 80 81 81 81 81 81 81 81 81 80 80 80 80 80 80 80 81 82 83 83 80 81 83 85 85 84 84 84 84 83
57 60 62 65 67 69 71 73 75 77 78 80 81 81 80 79 79 79 79 79 79 79 78 77 76 75 75 75 74 74 74 75 76 74 73 75 76 77 77 77 78 79 79
61 64 66 69 71 72 74 75 77 78 80 80 80 79 78 78 78 78 78 78 77 76 74 73 71 70 69 68 67 67 67 67 67 66 64 66 68 69 71 71 72 72 73
65 67 69 71 72 74 75 77 78 79 80 79 78 77 77 77 77 77 76 75 73 71 68 66 65 63 62 61 61 61 61 60 60 60 59 59 61 62 64 64 65 66 67
67 69 71 72 74 75 77 78 79 80 79 78 77 77 77 77 75 74 72 70 67 64 62 60 58 57 56 56 56 55 54 55 55 55 54 53 54 56 57 59 60 61 62
69 71 72 74 75 77 78 79 79 79 78 77 77 76 75 73 71 69 67 64 61 58 56 55 54 53 52 51 51 51 50 50 50 51 50 50 49 51 53 54 56 57 58
70 72 74 76 77 78 79 79 79 78 77 76 75 73 71 69 67 64 61 59 56 54 53 51 50 49 48 48 47 47 47 48 48 48 47 46 47 48 50 51 52 53 54
72 74 76 77 79 79 79 79 78 77 75 74 72 70 67 64 62 59 57 54 52 50 49 48 47 46 46 46 45 44 43 43 44 45 45 45 45 46 47 48 48 50 51
74 75 77 79 79 79 78 77 76 75 73 71 69 66 63 60 57 55 53 50 48 47 46 46 46 45 44 44 44 42 41 41 42 43 44 44 43 44 44 45 46 47 48
75 77 78 79 79 78 77 76 74 73 70 68 65 62 59 55 52 50 49 47 46 45 44 44 43 42 41 41 41 40 40 39 40 41 41 41 42 42 43 43 44 45 45
77 78 79 78 78 77 76 74 73 71 67 64 61 57 54 51 48 47 46 45 44 42 41 40 40 39 39 38 38 38 38 38 38 38 38 39 39 40 41 42 42 43 43
78 78 78 77 76 76 74 72 70 67 63 60 56 52 50 47 45 44 43 43 42 41 39 38 38 37 36 36 36 37 37 37 37 37 37 37 38 38 39 39 40 41 41
78 78 77 76 75 75 73 70 67 63 60 56 52 48 45 43 42 41 40 40 39 38 38 37 36 35 35 35 35 36 36 36 36 36 35 35 36 36 36 37 38 39 39
78 77 76 75 74 72 69 66 62 59 55 51 48 45 42 40 39 38 38 37 36 36 36 35 35 34 34 33 33 33 33 33 33 33 33 33 33 34 34 35 36 37 38
78 76 75 74 72 68 64 61 57 53 51 47 44 42 40 38 37 36 36 35 35 34 34 34 34 33 32 31 31 31 31 31 31 31 31 31 31 31 32 33 34 35 36
76 75 73 71 68 64 59 54 51 49 46 44 42 41 39 37 36 35 35 34 34 34 34 34 33 32 31 30 30 30 30 30 30 30 30 30 30 31 32 33 34 35 36
75 73 70 67 63 59 55 51 46 43 42 41 40 39 38 36 35 35 34 33 33 33 33 32 32 31 30 29 29 29 29 29 30 30 30 30 31 32 33 33 35 36 37
72 69 66 63 59 54 50 47 45 42 38 37 37 37 36 35 35 35 33 32 32 32 32 31 30 30 29 29 28 28 29 29 29 30 30 31 31 32 32 33 33 35 36
68 65 62 58 54 50 47 45 43 41 38 36 35 34 34 34 34 34 33 32 31 31 30 30 29 28 28 28 28 28 28 28 29 29 30 30 31 31 31 31 32 32 33
64 60 57 54 50 47 45 43 41 39 37 35 34 33 33 33 32 32 31 31 30 30 30 30 29 29 28 28 28 28 28 28 29 29 29 29 30 30 30 30 30 31 31
59 56 52 50 47 45 43 41 39 37 35 34 33 32 32 32 31 30 30 30 30 30 30 30 29 29 29 29 28 28 28 28 28 28 28 28 29 29 29 30 30 30 30
55 52 49 46 44 42 41 39 37 35 34 33 32 31 32 31 31 30 30 30 30 30 30 30 29 29 29 29 28 28 27 27 27 27 27 28 28 28 28 28 28 28 29
52 49 46 44 42 40 38 37 36 34 33 32 31 31 31 31 31 30 30 30 29 29 29 29 29 29 28 28 27 27 27 26 26 26 26 26 26 26 27 27 27 28 28
49 46 43 41 39 38 37 36 34 33 32 31 30 30 30 30 30 30 30 29 29 28 29 29 29 28 27 27 27 27 26 26 25 26 26 26 26 26 26 27 27 28 28
46 43 40 38 37 36 35 34 33 31 30 30 30 30 30 30 30 30 30 29 28 28 28 29 28 27 27 27 27 26 25 25 24 25 25 25 25 26 26 27 27 28 28
42 39 37 35 34 34 34 32 31 30 29 29 29 29 30 30 30 30 29 29 28 27 27 28 27 27 26 26 25 24 24 24 24 25 25 26 26 27 28 28 28 28 29
Wind_Direction
301 302 303 303 303 303 303 302 302 301 301 301 300 299 299 298 297 296 295 294 293 292 290 289 287 285 283 281 279 278 276 275 274 271 269 268 267 265 263 263 262 261 260
303 303 304 304 304 304 304 304 303 303 303 302 302 301 300 299 298 298 297 296 295 293 292 290 288 286 285 283 281 279 278 276 275 272 269 268 267 265 263 262 261 261 260
304 304 305 305 305 305 305 305 305 305 304 304 303 302 301 301 300 299 298 297 296 294 292 291 289 287 286 284 282 281 279 277 276 274 271 268 267 266 264 263 262 261 259
305 305 306 306 306 306 306 306 306 306 306 305 304 303 303 302 301 300 299 298 297 295 293 292 290 288 286 284 282 281 279 277 276 275 273 270 268 266 265 263 262 260 259
306 306 307 307 307 307 308 308 307 307 307 306 305 304 304 303 302 301 299 298 297 295 294 292 290 289 287 285 283 281 279 278 277 276 274 271 269 267 265 263 261 260 259
307 307 308 308 308 309 309 309 308 308 307 307 306 305 305 304 303 301 299 298 297 296 294 292 290 288 287 285 283 281 280 279 278 276 275 272 269 267 266 264 262 260 259
308 309 309 309 310 310 310 310 309 309 308 307 307 306 305 304 302 300 299 297 297 296 295 293 291 289 287 286 284 282 280 279 278 277 275 272 270 268 266 265 263 261 259
310 310 311 311 311 311 311 311 310 309 309 309 308 307 305 304 302 300 298 297 297 297 296 294 292 291 288 286 284 282 280 278 278 276 275 273 271 269 268 266 264 262 260
311 311 312 312 312 312 312 312 311 311 310 310 308 307 305 303 301 300 298 298 298 297 297 295 294 292 290 287 285 283 281 279 277 276 275 274 272 270 269 267 265 264 262
312 313 313 313 313 313 313 313 312 311 311 310 309 307 305 303 301 300 299 299 298 298 297 297 295 294 291 288 285 284 282 280 278 276 275 274 272 271 269 267 266 264 263
313 314 314 314 314 314 313 313 312 312 311 310 309 307 305 304 301 300 300 299 299 299 299 298 296 294 292 289 287 285 284 282 279 277 275 274 272 271 269 268 266 265 264
314 314 314 314 314 314 314 313 313 312 311 310 308 307 305 303 301 300 300 300 300 300 300 299 298 295 292 290 288 286 284 283 281 279 276 274 273 271 269 267 266 265 263
315 315 315 314 314 314 314 313 312 311 311 310 308 307 305 303 302 301 300 300 299 300 300 300 299 297 294 291 289 287 286 284 282 281 279 276 274 272 270 268 267 265 263
315 315 315 315 315 314 314 313 312 311 310 310 308 307 306 304 302 302 301 300 299 299 300 300 299 298 296 293 291 289 287 285 284 282 280 278 275 273 271 269 267 265 263
316 316 315 315 315 315 314 313 312 311 311 310 309 309 307 306 305 304 303 302 301 300 300 300 300 298 296 293 292 290 289 288 286 284 282 280 277 275 273 271 269 267 265
316 316 316 316 315 314 313 313 312 311 310 310 309 309 309 308 308 307 306 305 303 303 303 303 301 300 298 295 293 291 290 289 288 286 284 281 278 276 274 273 272 269 267
316 316 316 316 315 315 314 313 312 310 309 309 308 309 308 308 309 308 307 307 306 306 305 304 302 300 298 296 293 292 291 290 288 287 285 282 281 279 278 276 275 272 269
316 316 315 316 316 315 314 313 312 310 309 307 307 307 307 308 308 308 308 307 307 307 307 306 305 303 301 298 295 294 293 291 290 288 285 284 283 282 280 279 277 274 271
315 315 315 315 315 314 314 313 312 311 310 309 308 307 307 308 308 308 308 307 306 306 307 307 306 305 303 301 298 297 296 294 292 290 288 287 285 283 282 281 279 277 274
315 315 315 315 314 314 313 312 312 311 310 309 309 308 307 308 307 307 307 307 307 307 306 307 306 305 304 303 301 299 297 296 294 292 290 289 287 285 283 282 281 279 276
315 314 314 314 313 313 313 312 311 311 310 310 309 309 309 309 308 307 307 307 308 307 306 306 306 305 305 304 303 301 299 297 295 294 292 291 289 287 285 284 283 279 276
314 314 313 313 313 313 312 312 311 311 311 310 310 309 310 310 310 309 308 308 308 308 307 307 306 306 306 305 304 303 301 299 298 296 295 294 292 290 288 287 285 281 277
314 313 313 312 312 312 312 311 310 310 310 310 310 310 310 310 310 310 309 309 308 308 308 308 308 307 306 306 305 305 304 302 300 298 297 296 295 293 291 289 287 283 280
313 312 312 311 312 312 312 311 310 310 310 310 310 311 311 311 311 311 311 310 308 308 309 309 309 308 307 306 306 305 303 302 300 299 298 297 297 296 294 292 290 287 283
312 312 311 311 311 312 312 311 310 309 309 310 311 311 312 313 313 313 312 310 309 308 309 311 310 309 308 307 306 305 303 302 301 300 300 299 299 298 296 294 293 290 287
311 311 310 311 312 313 313 313 311 310 309 310 311 312 313 314 314 314 313 312 311 310 310 312 311 310 309 309 307 306 305 303 301 300 300 300 300 299 298 297 295 293 292